Regional Weather Roundup
Issued by NWS Mobile, AL

Home | Current Version | Previous Version | Text Only | Print | Product List | Glossary On
Versions: 1 2 3 4 5 6 7 8 9 10 11 12 13 14 15 16 17 18 19 20 21 22 23 24 25 26 27 28 29 30 31 32 33 34 35 36 37 38 39 40 41 42 43 44 45 46 47 48 49 50
000
ASUS44 KMOB 280710
RWRMOB
REGIONAL WEATHER ROUNDUP
NATIONAL WEATHER SERVICE MOBILE AL
100 AM CST FRI NOV 28 2014

NOTE: "FAIR" INDICATES FEW OR NO CLOUDS BELOW 12,000 FEET WITH NO
      SIGNIFICANT WEATHER AND/OR OBSTRUCTIONS TO VISIBILITY.

  * THESE STATIONS ARE PART OF THE UNIVERSITY OF SOUTH ALABAMA
    MESONET AND ARE NOT UNDER NWS OR FAA QUALITY CONTROL.

ALZ061>064-280800-
COASTAL ALABAMA

CITY           SKY/WX    TMP DP  RH WIND       PRES   REMARKS
MOBILE REG APT CLEAR     37  31  78 N7        30.43F
BROOKLEY FIELD CLEAR     42  32  67 N9        30.45S
USA CAMPUS*      N/A    N/A N/A N/A CALM      30.45S
DOG RIVER*     NOT AVBL


CITY           SKY/WX    TMP DP  RH WIND       PRES   REMARKS
MOUNT VERNON*    N/A    N/A N/A N/A CALM      30.45S
SARALAND*      NOT AVBL
BAY MINETTE*   NOT AVBL
LOXLEY*          N/A    N/A N/A N/A N6        30.42S
ROBERTSDALE*     N/A    N/A N/A N/A N5        30.41S
FAIRHOPE*        N/A    N/A N/A N/A N5        30.41S
ELBERTA*         N/A    N/A N/A N/A CALM      30.40F
FOLEY*           N/A    N/A N/A N/A NW6       30.38S
GRAND BAY*       N/A     37  32  81 CALM      30.41S
DAUPHIN ISLND* NOT AVBL
BON SCOUR NWR* NOT AVBL
GULF SHORES    CLEAR     38  32  77 NE3       30.41S

$$

ALZ051>060-280800-
INTERIOR SOUTHWEST AND SOUTH CENTRAL ALABAMA

CITY           SKY/WX    TMP DP  RH WIND       PRES   REMARKS
GREENVILLE     CLEAR     34  28  79 N6        30.41F WCI  29
EVERGREEN      CLEAR     32  29  88 CALM      30.43F
CASTLEBERRY*   NOT AVBL
ATMORE*          N/A    N/A N/A N/A VRB7      30.43S
DIXIE*           N/A    N/A N/A N/A CALM      30.37F
ANDALUSIA/OPP  CLEAR     39  30  70 N5        30.41F
ANDALUSIA*       N/A    N/A N/A N/A N3        30.39F
FLORALA APT    CLEAR     36  30  79 CALM      30.42F
FLORALA*         N/A    N/A N/A N/A NW6       30.38S

$$

FLZ001>006-280800-
WESTERN FLORIDA PANHANDLE

CITY           SKY/WX    TMP DP  RH WIND       PRES   REMARKS
PENSACOLA      CLEAR     41  31  67 NE9       30.40F
NAS PENSACOLA  CLEAR     41  32  70 NE10      30.40F
MILTON         CLEAR     36  30  79 NE6       30.40F
WHTNG S FIELD  CLEAR     40  30  67 N9        30.40F


CITY           SKY/WX    TMP DP  RH WIND       PRES   REMARKS
WALNUT HILL*   NOT AVBL
JAY*             N/A    N/A N/A N/A N3        30.41F
DUKE FIELD     CLEAR     36  31  83 N5        30.40F
CRESTVIEW      CLEAR     38  31  76 N6        30.42F
VALPARAISO     CLEAR     39  31  74 N9        30.40F
DESTIN         CLEAR     43  34  70 N15       30.40F

$$

MSZ076-079-280800-
INTERIOR SOUTHEAST MISSISSIPPI

CITY           SKY/WX    TMP DP  RH WIND       PRES   REMARKS
LEAKESVILLE*     N/A    N/A N/A N/A NE2       30.43F
AGRICOLA*      NOT AVBL

$$

MARINE OBSERVATIONS

STATION/POSITION TIME  TEMP    WIND        PRES    WAVE
                       AIR SEA DIR/SP/G            HT/PER
                 (UTC) (F)     (DEG/KT/KT) (MB)    (FT/S)
PASCAGOULA       0700   43      30/  7/ 10 1030.1S
PETIT BOIS ISLND 0700   45      30/ 14/ 16 1030.4R
GRAND BAY        0600   41      10/  5     1030.0F
KATRINA CUT      0600   46      40/ 12     1030.5S
CEDAR POINT      0500   47      30/ 17     1029.5F
E DAUPHIN ISLAND 0600   47      20/ 17/ 19 1030.1F
MIDDLE BAY LIGHT 0600   45      30/ 19     1028.8S
USCG MOBILE BAY  0700   41 58   10/  6/  9 1029.5R
STATE DOCKS      0700   42 57              1030.3R
MEAHER PARK      0600   40     340/  4     1030.8S
WEEKS BAY        0600   39                   N/A
FORT MORGAN      0700   45      50/ 16/ 19 1029.5F
12 S ORANGE BCH  0700   49 64   30/ 17/ 21 1028.8F   3/ 5
PENSACOLA BAY    0700   43 59   30/  7/  9 1029.7F
64 S DAUPHIN ISL 0608   55 71   40/ 17/ 23 1029.6F   4/ 6
67 S FORT MORGAN 0500   56      30/ 19     1028.8F

$$

SELECTED LOCATIONS ACROSS THE REGION

CITY           SKY/WX    TMP DP  RH WIND       PRES   REMARKS
NEW ORLEANS    CLEAR     48  35  60 NE8       30.42F
GULFPORT       CLEAR     40  32  73 N5        30.43S
PASCAGOULA AP  CLEAR     37  32  82 N7        30.43S
PASCAGOULA*      N/A    N/A N/A N/A N2        30.43S
HATTIESBURG    CLEAR     33  31  92 CALM      30.46F
LAUREL         CLEAR     32  27  80 CALM      30.45F
MERIDIAN       CLEAR     30  28  92 N7        30.45F WCI  23
JACKSON        CLEAR     31  29  92 NE7       30.44F WCI  24
MONTGOMERY     CLEAR     36  29  75 N6        30.44F
TROY           CLEAR     33  29  85 N6        30.42F WCI  28
KINSTON*       NOT AVBL
GENEVA*          N/A    N/A N/A N/A N6        30.43F
ASHFORD*         N/A    N/A N/A N/A N3        30.39F
DOTHAN         CLEAR     35  30  82 NW6       30.43F WCI  30
PANAMA CITY    CLEAR     40  31  70 N8        30.38F

$$



USA.gov is the U.S. government's official web portal to all federal, state and local government web resources and services.